Simultaneous Nadir Overpasses (SNOs) Predictions

Prediction of SNOs between GOES-17 and NOAA-19 Satellite Orbit:

Table of predicted SNOs for the next 14.0 days since TLE Epoch: 5/31/2019
Index Date Time (GOES-17) GOES-17 Lat,Lon NOAA-19 Lat,Lon Distance(km) Time Diff (sec)
1 06/01/2019 13:54:47 0.00,-137.21 -0.37,-135.56 187.84 80
2 06/04/2019 02:16:04 0.00,-137.17 -0.82,-140.60 392.79 80
3 06/05/2019 02:04:28 0.01,-137.16 -0.11,-137.78 69.61 80
4 06/06/2019 01:55:31 0.02,-137.15 0.55,-134.94 253.41 80
5 06/08/2019 14:13:51 -0.03,-137.17 0.59,-139.91 313.02 80
6 06/09/2019 14:04:54 -0.03,-137.15 -0.06,-137.07 9.70 80
7 06/10/2019 13:53:16 -0.03,-137.14 -0.71,-134.23 332.18 80
8 06/13/2019 02:11:52 0.03,-137.07 -0.49,-139.26 251.00 80
9 06/14/2019 02:02:55 0.03,-137.05 0.18,-136.42 71.30 80




NCC Satellite Simultaneous Nadir Overpasses (SNOs) Prediction Service
